owner,sensor,date,latitude,longitude,relative_humidity,qcFlag 
COMPS,ioos:station:USF.COMPS:FHP:1,2013-11-11T19:00:00Z,28.1530,-82.8010,76.72,1111122 
COMPS,ioos:station:USF.COMPS:FHP:1,2013-11-11T19:06:00Z,28.1530,-82.8010,77.18,1111122 
COMPS,ioos:station:USF.COMPS:FHP:1,2013-11-11T19:12:00Z,28.1530,-82.8010,77.47,1111122 
COMPS,ioos:station:USF.COMPS:FHP:1,2013-11-11T19:18:00Z,28.1530,-82.8010,78.02,1111122 
COMPS,ioos:station:USF.COMPS:FHP:1,2013-11-11T19:24:00Z,28.1530,-82.8010,78.24,1111122 
COMPS,ioos:station:USF.COMPS:FHP:1,2013-11-11T19:30:00Z,28.1530,-82.8010,78.2,1111122 
COMPS,ioos:station:USF.COMPS:FHP:1,2013-11-11T19:36:00Z,28.1530,-82.8010,78.42,1111122 
COMPS,ioos:station:USF.COMPS:FHP:1,2013-11-11T19:42:00Z,28.1530,-82.8010,78.19,1111122 
COMPS,ioos:station:USF.COMPS:FHP:1,2013-11-11T19:48:00Z,28.1530,-82.8010,78.93,1111122 
COMPS,ioos:station:USF.COMPS:FHP:1,2013-11-11T19:54:00Z,28.1530,-82.8010,78.27,1111122 
COMPS,ioos:station:USF.COMPS:FHP:1,2013-11-11T20:00:00Z,28.1530,-82.8010,77.84,1111122 
COMPS,ioos:station:USF.COMPS:FHP:1,2013-11-11T20:06:00Z,28.1530,-82.8010,77.68,1111122 
COMPS,ioos:station:USF.COMPS:FHP:1,2013-11-11T20:12:00Z,28.1530,-82.8010,77.6,1111122 
COMPS,ioos:station:USF.COMPS:FHP:1,2013-11-11T20:18:00Z,28.1530,-82.8010,77.88,1111122 
COMPS,ioos:station:USF.COMPS:FHP:1,2013-11-11T20:24:00Z,28.1530,-82.8010,77.52,1111122 
COMPS,ioos:station:USF.COMPS:FHP:1,2013-11-11T20:30:00Z,28.1530,-82.8010,77.53,1111122 
COMPS,ioos:station:USF.COMPS:FHP:1,2013-11-11T20:36:00Z,28.1530,-82.8010,77.54,1111122 
COMPS,ioos:station:USF.COMPS:FHP:1,2013-11-11T20:42:00Z,28.1530,-82.8010,77.73,1111122 
COMPS,ioos:station:USF.COMPS:FHP:1,2013-11-11T20:48:00Z,28.1530,-82.8010,77.47,1111122 
COMPS,ioos:station:USF.COMPS:FHP:1,2013-11-11T20:54:00Z,28.1530,-82.8010,77.56,1111122 
COMPS,ioos:station:USF.COMPS:FHP:1,2013-11-11T21:00:00Z,28.1530,-82.8010,77.95,1111122 
COMPS,ioos:station:USF.COMPS:FHP:1,2013-11-11T21:06:00Z,28.1530,-82.8010,77.78,1111122 
COMPS,ioos:station:USF.COMPS:FHP:1,2013-11-11T21:12:00Z,28.1530,-82.8010,77.95,1111122 
COMPS,ioos:station:USF.COMPS:FHP:1,2013-11-11T21:18:00Z,28.1530,-82.8010,77.41,1111122 
COMPS,ioos:station:USF.COMPS:FHP:1,2013-11-11T21:24:00Z,28.1530,-82.8010,78.23,1111122 
COMPS,ioos:station:USF.COMPS:FHP:1,2013-11-11T21:30:00Z,28.1530,-82.8010,79.32,1111122 
COMPS,ioos:station:USF.COMPS:FHP:1,2013-11-11T21:36:00Z,28.1530,-82.8010,79.21,1111122 
COMPS,ioos:station:USF.COMPS:FHP:1,2013-11-11T21:42:00Z,28.1530,-82.8010,79.43,1111122 
COMPS,ioos:station:USF.COMPS:FHP:1,2013-11-11T21:48:00Z,28.1530,-82.8010,79.45,1111122 
COMPS,ioos:station:USF.COMPS:FHP:1,2013-11-11T21:54:00Z,28.1530,-82.8010,79.65,1111122 
COMPS,ioos:station:USF.COMPS:FHP:1,2013-11-11T22:00:00Z,28.1530,-82.8010,79.62,1111122 
COMPS,ioos:station:USF.COMPS:FHP:1,2013-11-11T22:06:00Z,28.1530,-82.8010,79.84,1111122 
COMPS,ioos:station:USF.COMPS:FHP:1,2013-11-11T22:12:00Z,28.1530,-82.8010,80.23,1111122 
COMPS,ioos:station:USF.COMPS:FHP:1,2013-11-11T22:18:00Z,28.1530,-82.8010,80.62,1111122 
COMPS,ioos:station:USF.COMPS:FHP:1,2013-11-11T22:24:00Z,28.1530,-82.8010,81.2,1111122 
COMPS,ioos:station:USF.COMPS:FHP:1,2013-11-11T22:30:00Z,28.1530,-82.8010,81.28,1111122 
COMPS,ioos:station:USF.COMPS:FHP:1,2013-11-11T22:36:00Z,28.1530,-82.8010,81.81,1111122 
COMPS,ioos:station:USF.COMPS:FHP:1,2013-11-11T22:42:00Z,28.1530,-82.8010,81.74,1111122 
COMPS,ioos:station:USF.COMPS:FHP:1,2013-11-11T22:48:00Z,28.1530,-82.8010,82.23,1111122 
COMPS,ioos:station:USF.COMPS:FHP:1,2013-11-11T22:54:00Z,28.1530,-82.8010,82.93,1111122 
COMPS,ioos:station:USF.COMPS:FHP:1,2013-11-11T23:00:00Z,28.1530,-82.8010,83.79,1111122 
COMPS,ioos:station:USF.COMPS:FHP:1,2013-11-11T23:06:00Z,28.1530,-82.8010,83.73,1111122 
COMPS,ioos:station:USF.COMPS:FHP:1,2013-11-11T23:12:00Z,28.1530,-82.8010,83.13,1111122 
COMPS,ioos:station:USF.COMPS:FHP:1,2013-11-11T23:18:00Z,28.1530,-82.8010,83.8,1111122 
COMPS,ioos:station:USF.COMPS:FHP:1,2013-11-11T23:24:00Z,28.1530,-82.8010,84.18,1111122 
COMPS,ioos:station:USF.COMPS:FHP:1,2013-11-11T23:30:00Z,28.1530,-82.8010,84.23,1111122 
COMPS,ioos:station:USF.COMPS:FHP:1,2013-11-11T23:36:00Z,28.1530,-82.8010,83.82,1111122 
COMPS,ioos:station:USF.COMPS:FHP:1,2013-11-11T23:42:00Z,28.1530,-82.8010,83.27,1111122 
COMPS,ioos:station:USF.COMPS:FHP:1,2013-11-11T23:48:00Z,28.1530,-82.8010,82.99,1111122 
COMPS,ioos:station:USF.COMPS:FHP:1,2013-11-11T23:54:00Z,28.1530,-82.8010,83.57,1111122 
COMPS,ioos:station:USF.COMPS:FHP:1,2013-11-12T00:00:00Z,28.1530,-82.8010,83.03,1111122 
COMPS,ioos:station:USF.COMPS:FHP:1,2013-11-12T00:06:00Z,28.1530,-82.8010,82.94,1111122 
COMPS,ioos:station:USF.COMPS:FHP:1,2013-11-12T00:12:00Z,28.1530,-82.8010,84.37,1111122 
COMPS,ioos:station:USF.COMPS:FHP:1,2013-11-12T00:18:00Z,28.1530,-82.8010,84.72,1111122 
COMPS,ioos:station:USF.COMPS:FHP:1,2013-11-12T00:24:00Z,28.1530,-82.8010,84.17,1111122 
COMPS,ioos:station:USF.COMPS:FHP:1,2013-11-12T00:30:00Z,28.1530,-82.8010,83.32,1111122 
COMPS,ioos:station:USF.COMPS:FHP:1,2013-11-12T00:36:00Z,28.1530,-82.8010,83.78,1111122 
COMPS,ioos:station:USF.COMPS:FHP:1,2013-11-12T00:42:00Z,28.1530,-82.8010,84.1,1111122 
COMPS,ioos:station:USF.COMPS:FHP:1,2013-11-12T00:48:00Z,28.1530,-82.8010,83.84,1111122 
COMPS,ioos:station:USF.COMPS:FHP:1,2013-11-12T00:54:00Z,28.1530,-82.8010,84.16,1111122 
COMPS,ioos:station:USF.COMPS:FHP:1,2013-11-12T01:00:00Z,28.1530,-82.8010,83.87,1111122 
COMPS,ioos:station:USF.COMPS:FHP:1,2013-11-12T01:06:00Z,28.1530,-82.8010,84.51,1111122 
COMPS,ioos:station:USF.COMPS:FHP:1,2013-11-12T01:12:00Z,28.1530,-82.8010,84.42,1111122 
COMPS,ioos:station:USF.COMPS:FHP:1,2013-11-12T01:18:00Z,28.1530,-82.8010,84.08,1111122 
COMPS,ioos:station:USF.COMPS:FHP:1,2013-11-12T01:24:00Z,28.1530,-82.8010,84.91,1111122 
COMPS,ioos:station:USF.COMPS:FHP:1,2013-11-12T01:30:00Z,28.1530,-82.8010,84.73,1111122 
COMPS,ioos:station:USF.COMPS:FHP:1,2013-11-12T01:36:00Z,28.1530,-82.8010,85.33,1111122 
COMPS,ioos:station:USF.COMPS:FHP:1,2013-11-12T01:42:00Z,28.1530,-82.8010,85.76,1111122 
COMPS,ioos:station:USF.COMPS:FHP:1,2013-11-12T01:48:00Z,28.1530,-82.8010,86.07,1111122 
COMPS,ioos:station:USF.COMPS:FHP:1,2013-11-12T01:54:00Z,28.1530,-82.8010,85.97,1111122 
COMPS,ioos:station:USF.COMPS:FHP:1,2013-11-12T02:00:00Z,28.1530,-82.8010,85.37,1111122 
COMPS,ioos:station:USF.COMPS:FHP:1,2013-11-12T02:06:00Z,28.1530,-82.8010,85.3,1111122 
COMPS,ioos:station:USF.COMPS:FHP:1,2013-11-12T02:12:00Z,28.1530,-82.8010,84.81,1111122 
COMPS,ioos:station:USF.COMPS:FHP:1,2013-11-12T02:18:00Z,28.1530,-82.8010,85.39,1111122 
COMPS,ioos:station:USF.COMPS:FHP:1,2013-11-12T02:24:00Z,28.1530,-82.8010,86.13,1111122 
COMPS,ioos:station:USF.COMPS:FHP:1,2013-11-12T02:30:00Z,28.1530,-82.8010,86.94,1111122 
COMPS,ioos:station:USF.COMPS:FHP:1,2013-11-12T02:36:00Z,28.1530,-82.8010,87.29,1111122 
COMPS,ioos:station:USF.COMPS:FHP:1,2013-11-12T02:42:00Z,28.1530,-82.8010,87.82,1111122 
COMPS,ioos:station:USF.COMPS:FHP:1,2013-11-12T02:48:00Z,28.1530,-82.8010,88.03,1111122 
COMPS,ioos:station:USF.COMPS:FHP:1,2013-11-12T02:54:00Z,28.1530,-82.8010,87.68,1111122 
COMPS,ioos:station:USF.COMPS:FHP:1,2013-11-12T03:00:00Z,28.1530,-82.8010,87.69,1111122 
COMPS,ioos:station:USF.COMPS:FHP:1,2013-11-12T03:06:00Z,28.1530,-82.8010,88.15,1111122 
COMPS,ioos:station:USF.COMPS:FHP:1,2013-11-12T03:12:00Z,28.1530,-82.8010,88.69,1111122 
COMPS,ioos:station:USF.COMPS:FHP:1,2013-11-12T03:18:00Z,28.1530,-82.8010,88.92,1111122 
COMPS,ioos:station:USF.COMPS:FHP:1,2013-11-12T03:24:00Z,28.1530,-82.8010,89.03,1111122 
COMPS,ioos:station:USF.COMPS:FHP:1,2013-11-12T03:30:00Z,28.1530,-82.8010,87.86,1111122 
COMPS,ioos:station:USF.COMPS:FHP:1,2013-11-12T03:36:00Z,28.1530,-82.8010,85.74,1111122 
COMPS,ioos:station:USF.COMPS:FHP:1,2013-11-12T03:42:00Z,28.1530,-82.8010,85.22,1111122 
COMPS,ioos:station:USF.COMPS:FHP:1,2013-11-12T03:48:00Z,28.1530,-82.8010,85.76,1111122 
COMPS,ioos:station:USF.COMPS:FHP:1,2013-11-12T03:54:00Z,28.1530,-82.8010,85.27,1111122 
COMPS,ioos:station:USF.COMPS:FHP:1,2013-11-12T04:00:00Z,28.1530,-82.8010,84.82,1111122 
COMPS,ioos:station:USF.COMPS:FHP:1,2013-11-12T04:06:00Z,28.1530,-82.8010,85.32,1111122 
COMPS,ioos:station:USF.COMPS:FHP:1,2013-11-12T04:12:00Z,28.1530,-82.8010,85.39,1111122 
COMPS,ioos:station:USF.COMPS:FHP:1,2013-11-12T04:18:00Z,28.1530,-82.8010,84.07,1111122 
COMPS,ioos:station:USF.COMPS:FHP:1,2013-11-12T04:24:00Z,28.1530,-82.8010,81.87,1111122 
COMPS,ioos:station:USF.COMPS:FHP:1,2013-11-12T04:30:00Z,28.1530,-82.8010,81.03,1111122 
COMPS,ioos:station:USF.COMPS:FHP:1,2013-11-12T04:36:00Z,28.1530,-82.8010,80.56,1111122 
COMPS,ioos:station:USF.COMPS:FHP:1,2013-11-12T04:42:00Z,28.1530,-82.8010,80.43,1111122 
COMPS,ioos:station:USF.COMPS:FHP:1,2013-11-12T04:48:00Z,28.1530,-82.8010,80.74,1111122 
COMPS,ioos:station:USF.COMPS:FHP:1,2013-11-12T04:54:00Z,28.1530,-82.8010,81.23,1111122 
COMPS,ioos:station:USF.COMPS:FHP:1,2013-11-12T05:00:00Z,28.1530,-82.8010,81.67,1111122 
COMPS,ioos:station:USF.COMPS:FHP:1,2013-11-12T05:06:00Z,28.1530,-82.8010,82.14,1111122 
COMPS,ioos:station:USF.COMPS:FHP:1,2013-11-12T05:12:00Z,28.1530,-82.8010,82.22,1111122 
COMPS,ioos:station:USF.COMPS:FHP:1,2013-11-12T05:18:00Z,28.1530,-82.8010,82.52,1111122 
COMPS,ioos:station:USF.COMPS:FHP:1,2013-11-12T05:24:00Z,28.1530,-82.8010,82.77,1111122 
COMPS,ioos:station:USF.COMPS:FHP:1,2013-11-12T05:30:00Z,28.1530,-82.8010,83.08,1111122 
COMPS,ioos:station:USF.COMPS:FHP:1,2013-11-12T05:36:00Z,28.1530,-82.8010,83.05,1111122 
COMPS,ioos:station:USF.COMPS:FHP:1,2013-11-12T05:42:00Z,28.1530,-82.8010,83.4,1111122 
COMPS,ioos:station:USF.COMPS:FHP:1,2013-11-12T05:48:00Z,28.1530,-82.8010,83.67,1111122 
COMPS,ioos:station:USF.COMPS:FHP:1,2013-11-12T05:54:00Z,28.1530,-82.8010,83.81,1111122 
COMPS,ioos:station:USF.COMPS:FHP:1,2013-11-12T06:00:00Z,28.1530,-82.8010,84.27,1111122 
COMPS,ioos:station:USF.COMPS:FHP:1,2013-11-12T06:06:00Z,28.1530,-82.8010,84.77,1111122 
COMPS,ioos:station:USF.COMPS:FHP:1,2013-11-12T06:12:00Z,28.1530,-82.8010,85.11,1111122 
COMPS,ioos:station:USF.COMPS:FHP:1,2013-11-12T06:18:00Z,28.1530,-82.8010,85.51,1111122 
COMPS,ioos:station:USF.COMPS:FHP:1,2013-11-12T06:24:00Z,28.1530,-82.8010,85.39,1111122 
COMPS,ioos:station:USF.COMPS:FHP:1,2013-11-12T06:30:00Z,28.1530,-82.8010,85.57,1111122 
COMPS,ioos:station:USF.COMPS:FHP:1,2013-11-12T06:36:00Z,28.1530,-82.8010,85.92,1111122 
COMPS,ioos:station:USF.COMPS:FHP:1,2013-11-12T06:42:00Z,28.1530,-82.8010,86.2,1111122 
COMPS,ioos:station:USF.COMPS:FHP:1,2013-11-12T06:48:00Z,28.1530,-82.8010,86.47,1111122 
COMPS,ioos:station:USF.COMPS:FHP:1,2013-11-12T06:54:00Z,28.1530,-82.8010,86.5,1111122 
COMPS,ioos:station:USF.COMPS:FHP:1,2013-11-12T07:00:00Z,28.1530,-82.8010,86.71,1111122 
COMPS,ioos:station:USF.COMPS:FHP:1,2013-11-12T07:06:00Z,28.1530,-82.8010,86.89,1111122 
COMPS,ioos:station:USF.COMPS:FHP:1,2013-11-12T07:12:00Z,28.1530,-82.8010,87.15,1111122 
COMPS,ioos:station:USF.COMPS:FHP:1,2013-11-12T07:18:00Z,28.1530,-82.8010,87.54,1111122 
COMPS,ioos:station:USF.COMPS:FHP:1,2013-11-12T07:24:00Z,28.1530,-82.8010,87.67,1111122 
COMPS,ioos:station:USF.COMPS:FHP:1,2013-11-12T07:30:00Z,28.1530,-82.8010,88.12,1111122 
COMPS,ioos:station:USF.COMPS:FHP:1,2013-11-12T07:36:00Z,28.1530,-82.8010,88.48,1111122 
COMPS,ioos:station:USF.COMPS:FHP:1,2013-11-12T07:42:00Z,28.1530,-82.8010,88.59,1111122 
COMPS,ioos:station:USF.COMPS:FHP:1,2013-11-12T07:48:00Z,28.1530,-82.8010,88.89,1111122 
COMPS,ioos:station:USF.COMPS:FHP:1,2013-11-12T07:54:00Z,28.1530,-82.8010,89.04,1111122 
COMPS,ioos:station:USF.COMPS:FHP:1,2013-11-12T08:00:00Z,28.1530,-82.8010,89.18,1111122 
COMPS,ioos:station:USF.COMPS:FHP:1,2013-11-12T08:06:00Z,28.1530,-82.8010,89.63,1111122 
COMPS,ioos:station:USF.COMPS:FHP:1,2013-11-12T08:12:00Z,28.1530,-82.8010,89.83,1111122 
COMPS,ioos:station:USF.COMPS:FHP:1,2013-11-12T08:18:00Z,28.1530,-82.8010,89.96,1111122 
COMPS,ioos:station:USF.COMPS:FHP:1,2013-11-12T08:24:00Z,28.1530,-82.8010,90.05,1111122 
COMPS,ioos:station:USF.COMPS:FHP:1,2013-11-12T08:30:00Z,28.1530,-82.8010,90.07,1111122 
COMPS,ioos:station:USF.COMPS:FHP:1,2013-11-12T08:36:00Z,28.1530,-82.8010,90.17,1111122 
COMPS,ioos:station:USF.COMPS:FHP:1,2013-11-12T08:42:00Z,28.1530,-82.8010,90.17,1111122 
COMPS,ioos:station:USF.COMPS:FHP:1,2013-11-12T08:48:00Z,28.1530,-82.8010,90.3,1111122 
COMPS,ioos:station:USF.COMPS:FHP:1,2013-11-12T08:54:00Z,28.1530,-82.8010,90.21,1111122 
COMPS,ioos:station:USF.COMPS:FHP:1,2013-11-12T09:00:00Z,28.1530,-82.8010,90.25,1111122 
COMPS,ioos:station:USF.COMPS:FHP:1,2013-11-12T09:06:00Z,28.1530,-82.8010,90.33,1111122 
COMPS,ioos:station:USF.COMPS:FHP:1,2013-11-12T09:12:00Z,28.1530,-82.8010,90.15,1111122 
COMPS,ioos:station:USF.COMPS:FHP:1,2013-11-12T09:18:00Z,28.1530,-82.8010,90.05,1111122 
COMPS,ioos:station:USF.COMPS:FHP:1,2013-11-12T09:24:00Z,28.1530,-82.8010,89.87,1111122 
COMPS,ioos:station:USF.COMPS:FHP:1,2013-11-12T09:30:00Z,28.1530,-82.8010,90.01,1111122 
COMPS,ioos:station:USF.COMPS:FHP:1,2013-11-12T09:36:00Z,28.1530,-82.8010,90.32,1111122 
COMPS,ioos:station:USF.COMPS:FHP:1,2013-11-12T09:42:00Z,28.1530,-82.8010,90.48,1111122 
COMPS,ioos:station:USF.COMPS:FHP:1,2013-11-12T09:48:00Z,28.1530,-82.8010,90.58,1111122 
COMPS,ioos:station:USF.COMPS:FHP:1,2013-11-12T09:54:00Z,28.1530,-82.8010,90.79,1111122 
COMPS,ioos:station:USF.COMPS:FHP:1,2013-11-12T10:00:00Z,28.1530,-82.8010,90.88,1111122 
COMPS,ioos:station:USF.COMPS:FHP:1,2013-11-12T10:06:00Z,28.1530,-82.8010,90.94,1111122 
COMPS,ioos:station:USF.COMPS:FHP:1,2013-11-12T10:12:00Z,28.1530,-82.8010,91.04,1111122 
COMPS,ioos:station:USF.COMPS:FHP:1,2013-11-12T10:18:00Z,28.1530,-82.8010,91.33,1111122 
COMPS,ioos:station:USF.COMPS:FHP:1,2013-11-12T10:24:00Z,28.1530,-82.8010,91.54,1111122 
COMPS,ioos:station:USF.COMPS:FHP:1,2013-11-12T10:30:00Z,28.1530,-82.8010,91.79,1111122 
COMPS,ioos:station:USF.COMPS:FHP:1,2013-11-12T10:36:00Z,28.1530,-82.8010,91.96,1111122 
COMPS,ioos:station:USF.COMPS:FHP:1,2013-11-12T10:42:00Z,28.1530,-82.8010,92.25,1111122 
COMPS,ioos:station:USF.COMPS:FHP:1,2013-11-12T10:48:00Z,28.1530,-82.8010,92.29,1111122 
COMPS,ioos:station:USF.COMPS:FHP:1,2013-11-12T10:54:00Z,28.1530,-82.8010,92.56,1111122 
COMPS,ioos:station:USF.COMPS:FHP:1,2013-11-12T11:00:00Z,28.1530,-82.8010,92.79,1111122 
COMPS,ioos:station:USF.COMPS:FHP:1,2013-11-12T11:06:00Z,28.1530,-82.8010,92.78,1111122 
COMPS,ioos:station:USF.COMPS:FHP:1,2013-11-12T11:12:00Z,28.1530,-82.8010,93.13,1111122 
COMPS,ioos:station:USF.COMPS:FHP:1,2013-11-12T11:18:00Z,28.1530,-82.8010,93.02,1111122 
COMPS,ioos:station:USF.COMPS:FHP:1,2013-11-12T11:24:00Z,28.1530,-82.8010,93.18,1111122 
COMPS,ioos:station:USF.COMPS:FHP:1,2013-11-12T11:30:00Z,28.1530,-82.8010,93.18,1111122 
COMPS,ioos:station:USF.COMPS:FHP:1,2013-11-12T11:36:00Z,28.1530,-82.8010,93.25,1111122 
COMPS,ioos:station:USF.COMPS:FHP:1,2013-11-12T11:42:00Z,28.1530,-82.8010,93.33,1111122 
COMPS,ioos:station:USF.COMPS:FHP:1,2013-11-12T11:48:00Z,28.1530,-82.8010,93.19,1111122 
COMPS,ioos:station:USF.COMPS:FHP:1,2013-11-12T11:54:00Z,28.1530,-82.8010,93.21,1111122 
COMPS,ioos:station:USF.COMPS:FHP:1,2013-11-12T12:00:00Z,28.1530,-82.8010,93.23,1111122 
COMPS,ioos:station:USF.COMPS:FHP:1,2013-11-12T12:06:00Z,28.1530,-82.8010,93.09,1111122 
COMPS,ioos:station:USF.COMPS:FHP:1,2013-11-12T12:12:00Z,28.1530,-82.8010,93.11,1111122 
COMPS,ioos:station:USF.COMPS:FHP:1,2013-11-12T12:18:00Z,28.1530,-82.8010,92.9,1111122 
COMPS,ioos:station:USF.COMPS:FHP:1,2013-11-12T12:24:00Z,28.1530,-82.8010,92.87,1111122 
COMPS,ioos:station:USF.COMPS:FHP:1,2013-11-12T12:30:00Z,28.1530,-82.8010,92.59,1111122 
COMPS,ioos:station:USF.COMPS:FHP:1,2013-11-12T12:36:00Z,28.1530,-82.8010,92.5,1111122 
COMPS,ioos:station:USF.COMPS:FHP:1,2013-11-12T12:42:00Z,28.1530,-82.8010,92.36,1111122 
COMPS,ioos:station:USF.COMPS:FHP:1,2013-11-12T12:48:00Z,28.1530,-82.8010,92.14,1111122 
COMPS,ioos:station:USF.COMPS:FHP:1,2013-11-12T12:54:00Z,28.1530,-82.8010,92.05,1111122 
COMPS,ioos:station:USF.COMPS:FHP:1,2013-11-12T13:00:00Z,28.1530,-82.8010,91.49,1111122 
COMPS,ioos:station:USF.COMPS:FHP:1,2013-11-12T13:06:00Z,28.1530,-82.8010,90.98,1111122 
COMPS,ioos:station:USF.COMPS:FHP:1,2013-11-12T13:12:00Z,28.1530,-82.8010,90.68,1111122 
COMPS,ioos:station:USF.COMPS:FHP:1,2013-11-12T13:18:00Z,28.1530,-82.8010,90.41,1111122 
COMPS,ioos:station:USF.COMPS:FHP:1,2013-11-12T13:24:00Z,28.1530,-82.8010,89.36,1111122 
COMPS,ioos:station:USF.COMPS:FHP:1,2013-11-12T13:30:00Z,28.1530,-82.8010,88.46,1111122 
COMPS,ioos:station:USF.COMPS:FHP:1,2013-11-12T13:36:00Z,28.1530,-82.8010,87.23,1111122 
COMPS,ioos:station:USF.COMPS:FHP:1,2013-11-12T13:42:00Z,28.1530,-82.8010,86.64,1111122 
COMPS,ioos:station:USF.COMPS:FHP:1,2013-11-12T13:48:00Z,28.1530,-82.8010,87.02,1111122 
COMPS,ioos:station:USF.COMPS:FHP:1,2013-11-12T13:54:00Z,28.1530,-82.8010,86.91,1111122 
COMPS,ioos:station:USF.COMPS:FHP:1,2013-11-12T14:00:00Z,28.1530,-82.8010,86.67,1111122 
COMPS,ioos:station:USF.COMPS:FHP:1,2013-11-12T14:06:00Z,28.1530,-82.8010,86.46,1111122 
COMPS,ioos:station:USF.COMPS:FHP:1,2013-11-12T14:12:00Z,28.1530,-82.8010,86.24,1111122 
COMPS,ioos:station:USF.COMPS:FHP:1,2013-11-12T14:18:00Z,28.1530,-82.8010,85.84,1111122 
COMPS,ioos:station:USF.COMPS:FHP:1,2013-11-12T14:24:00Z,28.1530,-82.8010,85.44,1111122 
COMPS,ioos:station:USF.COMPS:FHP:1,2013-11-12T14:30:00Z,28.1530,-82.8010,85.0,1111122 
COMPS,ioos:station:USF.COMPS:FHP:1,2013-11-12T14:36:00Z,28.1530,-82.8010,84.51,1111122 
COMPS,ioos:station:USF.COMPS:FHP:1,2013-11-12T14:42:00Z,28.1530,-82.8010,84.15,1111122 
COMPS,ioos:station:USF.COMPS:FHP:1,2013-11-12T14:48:00Z,28.1530,-82.8010,82.61,1111122 
COMPS,ioos:station:USF.COMPS:FHP:1,2013-11-12T14:54:00Z,28.1530,-82.8010,81.47,1111122 
COMPS,ioos:station:USF.COMPS:FHP:1,2013-11-12T15:00:00Z,28.1530,-82.8010,80.13,1111122 
COMPS,ioos:station:USF.COMPS:FHP:1,2013-11-12T15:06:00Z,28.1530,-82.8010,79.34,1111122 
COMPS,ioos:station:USF.COMPS:FHP:1,2013-11-12T15:12:00Z,28.1530,-82.8010,77.73,1111122 
COMPS,ioos:station:USF.COMPS:FHP:1,2013-11-12T15:18:00Z,28.1530,-82.8010,77.17,1111122 
COMPS,ioos:station:USF.COMPS:FHP:1,2013-11-12T15:24:00Z,28.1530,-82.8010,76.72,1111122 
COMPS,ioos:station:USF.COMPS:FHP:1,2013-11-12T15:30:00Z,28.1530,-82.8010,77.35,1111122 
COMPS,ioos:station:USF.COMPS:FHP:1,2013-11-12T15:36:00Z,28.1530,-82.8010,77.08,1111122 
COMPS,ioos:station:USF.COMPS:FHP:1,2013-11-12T15:42:00Z,28.1530,-82.8010,77.97,1111122 
COMPS,ioos:station:USF.COMPS:FHP:1,2013-11-12T15:48:00Z,28.1530,-82.8010,78.87,1111122 
COMPS,ioos:station:USF.COMPS:FHP:1,2013-11-12T15:54:00Z,28.1530,-82.8010,79.29,1111122 
COMPS,ioos:station:USF.COMPS:FHP:1,2013-11-12T16:00:00Z,28.1530,-82.8010,78.98,1111122 
COMPS,ioos:station:USF.COMPS:FHP:1,2013-11-12T16:06:00Z,28.1530,-82.8010,79.46,1111122 
COMPS,ioos:station:USF.COMPS:FHP:1,2013-11-12T16:12:00Z,28.1530,-82.8010,81.56,1111122 
COMPS,ioos:station:USF.COMPS:FHP:1,2013-11-12T16:18:00Z,28.1530,-82.8010,80.37,1111122 
COMPS,ioos:station:USF.COMPS:FHP:1,2013-11-12T16:24:00Z,28.1530,-82.8010,78.87,1111122 
COMPS,ioos:station:USF.COMPS:FHP:1,2013-11-12T16:30:00Z,28.1530,-82.8010,80.07,1111122 
COMPS,ioos:station:USF.COMPS:FHP:1,2013-11-12T16:36:00Z,28.1530,-82.8010,80.99,1111122 
COMPS,ioos:station:USF.COMPS:FHP:1,2013-11-12T16:42:00Z,28.1530,-82.8010,79.68,1111122 
COMPS,ioos:station:USF.COMPS:FHP:1,2013-11-12T16:48:00Z,28.1530,-82.8010,77.95,1111122 
COMPS,ioos:station:USF.COMPS:FHP:1,2013-11-12T16:54:00Z,28.1530,-82.8010,77.46,1111122 
COMPS,ioos:station:USF.COMPS:FHP:1,2013-11-12T17:00:00Z,28.1530,-82.8010,77.83,1111122 
COMPS,ioos:station:USF.COMPS:FHP:1,2013-11-12T17:06:00Z,28.1530,-82.8010,78.11,1111122 
COMPS,ioos:station:USF.COMPS:FHP:1,2013-11-12T17:12:00Z,28.1530,-82.8010,77.35,1111122 
COMPS,ioos:station:USF.COMPS:FHP:1,2013-11-12T17:18:00Z,28.1530,-82.8010,75.55,1111122 
COMPS,ioos:station:USF.COMPS:FHP:1,2013-11-12T17:24:00Z,28.1530,-82.8010,76.4,1111122 
COMPS,ioos:station:USF.COMPS:FHP:1,2013-11-12T17:30:00Z,28.1530,-82.8010,76.02,1111122 
COMPS,ioos:station:USF.COMPS:FHP:1,2013-11-12T17:36:00Z,28.1530,-82.8010,77.17,1111122 
COMPS,ioos:station:USF.COMPS:FHP:1,2013-11-12T17:42:00Z,28.1530,-82.8010,77.78,1111122 
COMPS,ioos:station:USF.COMPS:FHP:1,2013-11-12T17:48:00Z,28.1530,-82.8010,78.18,1111122 
COMPS,ioos:station:USF.COMPS:FHP:1,2013-11-12T17:54:00Z,28.1530,-82.8010,78.66,1111122 
COMPS,ioos:station:USF.COMPS:FHP:1,2013-11-12T18:00:00Z,28.1530,-82.8010,79.11,1111122 
COMPS,ioos:station:USF.COMPS:FHP:1,2013-11-12T18:06:00Z,28.1530,-82.8010,79.29,1111122 
COMPS,ioos:station:USF.COMPS:FHP:1,2013-11-12T18:12:00Z,28.1530,-82.8010,80.0,1111122 
COMPS,ioos:station:USF.COMPS:FHP:1,2013-11-12T18:18:00Z,28.1530,-82.8010,80.73,1111122 
COMPS,ioos:station:USF.COMPS:FHP:1,2013-11-12T18:24:00Z,28.1530,-82.8010,82.65,1111122 
COMPS,ioos:station:USF.COMPS:FHP:1,2013-11-12T18:30:00Z,28.1530,-82.8010,83.39,1111122 
COMPS,ioos:station:USF.COMPS:FHP:1,2013-11-12T18:36:00Z,28.1530,-82.8010,83.61,1111122 
COMPS,ioos:station:USF.COMPS:FHP:1,2013-11-12T18:42:00Z,28.1530,-82.8010,85.49,1111122 
COMPS,ioos:station:USF.COMPS:FHP:1,2013-11-12T18:48:00Z,28.1530,-82.8010,86.48,1111122 
COMPS,ioos:station:USF.COMPS:FHP:1,2013-11-12T18:54:00Z,28.1530,-82.8010,86.63,1111122 
COMPS,ioos:station:USF.COMPS:FHP:1,2013-11-14T22:00:00Z,28.1530,-82.8010,50.5,1111122 
COMPS,ioos:station:USF.COMPS:FHP:1,2013-11-14T22:06:00Z,28.1530,-82.8010,49.89,1111122 
COMPS,ioos:station:USF.COMPS:FHP:1,2013-11-14T22:12:00Z,28.1530,-82.8010,50.3,1111122 
COMPS,ioos:station:USF.COMPS:FHP:1,2013-11-14T22:18:00Z,28.1530,-82.8010,51.23,1111122 
COMPS,ioos:station:USF.COMPS:FHP:1,2013-11-14T22:24:00Z,28.1530,-82.8010,51.52,1111122 
COMPS,ioos:station:USF.COMPS:FHP:1,2013-11-14T22:30:00Z,28.1530,-82.8010,51.45,1111122 
COMPS,ioos:station:USF.COMPS:FHP:1,2013-11-14T22:36:00Z,28.1530,-82.8010,52.07,1111122 
COMPS,ioos:station:USF.COMPS:FHP:1,2013-11-14T22:42:00Z,28.1530,-82.8010,52.41,1111122 
COMPS,ioos:station:USF.COMPS:FHP:1,2013-11-14T22:48:00Z,28.1530,-82.8010,53.16,1111122 
COMPS,ioos:station:USF.COMPS:FHP:1,2013-11-14T22:54:00Z,28.1530,-82.8010,53.94,1111122 
COMPS,ioos:station:USF.COMPS:FHP:1,2013-11-14T23:00:00Z,28.1530,-82.8010,54.26,1111122 
COMPS,ioos:station:USF.COMPS:FHP:1,2013-11-14T23:06:00Z,28.1530,-82.8010,55.08,1111122 
COMPS,ioos:station:USF.COMPS:FHP:1,2013-11-14T23:12:00Z,28.1530,-82.8010,55.67,1111122 
COMPS,ioos:station:USF.COMPS:FHP:1,2013-11-14T23:18:00Z,28.1530,-82.8010,55.7,1111122 
COMPS,ioos:station:USF.COMPS:FHP:1,2013-11-14T23:24:00Z,28.1530,-82.8010,55.67,1111122 
COMPS,ioos:station:USF.COMPS:FHP:1,2013-11-14T23:30:00Z,28.1530,-82.8010,55.81,1111122 
COMPS,ioos:station:USF.COMPS:FHP:1,2013-11-14T23:36:00Z,28.1530,-82.8010,57.33,1111122 
COMPS,ioos:station:USF.COMPS:FHP:1,2013-11-14T23:42:00Z,28.1530,-82.8010,57.7,1111122 
COMPS,ioos:station:USF.COMPS:FHP:1,2013-11-14T23:48:00Z,28.1530,-82.8010,58.78,1111122 
COMPS,ioos:station:USF.COMPS:FHP:1,2013-11-14T23:54:00Z,28.1530,-82.8010,59.15,1111122 
COMPS,ioos:station:USF.COMPS:FHP:1,2013-11-15T00:00:00Z,28.1530,-82.8010,59.09,1111122 
COMPS,ioos:station:USF.COMPS:FHP:1,2013-11-15T00:06:00Z,28.1530,-82.8010,59.4,1111122 
COMPS,ioos:station:USF.COMPS:FHP:1,2013-11-15T00:12:00Z,28.1530,-82.8010,59.54,1111122 
COMPS,ioos:station:USF.COMPS:FHP:1,2013-11-15T00:18:00Z,28.1530,-82.8010,59.32,1111122 
COMPS,ioos:station:USF.COMPS:FHP:1,2013-11-15T00:24:00Z,28.1530,-82.8010,59.36,1111122 
COMPS,ioos:station:USF.COMPS:FHP:1,2013-11-15T00:30:00Z,28.1530,-82.8010,59.6,1111122 
COMPS,ioos:station:USF.COMPS:FHP:1,2013-11-15T00:36:00Z,28.1530,-82.8010,59.9,1111122 
COMPS,ioos:station:USF.COMPS:FHP:1,2013-11-15T00:42:00Z,28.1530,-82.8010,60.27,1111122 
COMPS,ioos:station:USF.COMPS:FHP:1,2013-11-15T00:48:00Z,28.1530,-82.8010,60.86,1111122 
COMPS,ioos:station:USF.COMPS:FHP:1,2013-11-15T00:54:00Z,28.1530,-82.8010,61.62,1111122 
COMPS,ioos:station:USF.COMPS:FHP:1,2013-11-15T01:00:00Z,28.1530,-82.8010,62.18,1111122 
COMPS,ioos:station:USF.COMPS:FHP:1,2013-11-15T01:06:00Z,28.1530,-82.8010,62.41,1111122 